Regional Weather Roundup
Issued by NWS

Home | Current Version | Previous Version | Graphics & Text | Print | Product List | Glossary Off
Versions: 1 2 3 4 5 6 7 8 9 10 11 12 13 14 15 16 17 18 19 20 21 22 23 24 25 26 27 28 29 30 31 32 33 34 35 36 37 38 39 40 41 42 43 44 45 46 47 48 49 50

000
ASUS43 KDTX 251110
RWRMI
MICHIGAN HOURLY REGIONAL WEATHER ROUNDUP
NATIONAL WEATHER SERVICE DETROIT/PONTIAC MI
600 AM EST SUN JAN 25 2015

NOTE: "FAIR" INDICATES FEW OR NO CLOUDS BELOW 12,000 FEET WITH NO
SIGNIFICANT WEATHER AND/OR OBSTRUCTION TO VISIBILITY.

MIZ047>049-052>055-059>063-066>070-074>076-081>083-251200-
SOUTHEAST LOWER MICHIGAN

CITY           SKY/WX    TMP DP  RH WIND       PRES   REMARKS
ADRIAN         CLOUDY    33  31  92 NE5       29.73R FOG     WCI  29
ALMA           CLOUDY    24  17  74 NE13      29.82R WCI  12
ANN ARBOR      CLOUDY    32  28  85 NE9       29.74R WCI  24
BAD AXE        CLOUDY    21  14  75 N8        29.84R WCI  11
CARO           CLOUDY    22  15  75 N9        29.83R WCI  12
DETROIT CITY   CLOUDY    29  19  66 N13       29.78R WCI  19
DETROIT        CLOUDY    31  28  89 N9        29.77R WCI  23
FLINT          CLOUDY    27  17  66 N14       29.80R WCI  16
GROSSE ILE     CLOUDY    30  27  86 NE13      29.75R WCI  20
HILLSDALE      CLOUDY    35  34  97 NE6       29.70R FOG     WCI  30
HOWELL         CLOUDY    28  23  84 N7        29.77R WCI  20

CITY           SKY/WX    TMP DP  RH WIND       PRES   REMARKS
JACKSON        CLOUDY    32  29  88 NE9       29.73R WCI  24
LAMBERTVILLE   CLOUDY    34  32  93 CALM      29.73S FOG
LANSING        CLOUDY    26  20  77 NE14      29.79R WCI  14
LAPEER         CLOUDY    23  15  72 NE10      29.81R WCI  12
MASON          CLOUDY    28  24  86 NE12      29.77R WCI  17
MONROE         CLOUDY    34  32  93 CALM      29.73R FOG
MT. CLEMENS    CLOUDY    26  19  74 N16       29.78R WCI  14
PONTIAC        CLOUDY    25  18  74 NE14G20     N/A  WCI  13
PORT HOPE        N/A     22  14  71 N8G21     29.82R WCI  12
PORT HURON     CLOUDY    25  18  74 N9G20     29.80R WCI  15
TRI CITIES     MOCLDY    22  13  68 NE15      29.85R WCI   9
TROY           CLOUDY    29  22  73 NE13      29.80R WCI  19
SAGINAW HB     CLOUDY    23  18  80 N16G22    29.84R WCI  10
$$
MIZ043>046-050>051-056>058-064>065-071>073-077>080-251200-
SOUTHWEST LOWER MICHIGAN

CITY           SKY/WX    TMP DP  RH WIND       PRES   REMARKS
BATTLE CREEK   CLOUDY    34  29  82 NE9       29.73R WCI  27
BENTON HARBOR  CLOUDY    34  33  96 NE5       29.70S FOG     WCI  30
BIG RAPIDS     MOCLDY    19  14  80 NE7       29.82R WCI  10
COLDWATER      CLOUDY    34  32  94 MISG      29.71R FOG
FREMONT        CLOUDY    25  16  70 NE14      29.80R WCI  13
HOLLAND        FLURRIES  34  27  75 E9        29.75R WCI  27
GRAND RAPIDS   CLOUDY    30  25  81 NE16      29.77R WCI  19
IONIA          CLOUDY    28  23  81 NE15G22   29.78R WCI  17
KALAMAZOO      CLOUDY    34  31  88 NE12      29.72R FOG     WCI  25
LUDINGTON      MOCLDY    21  13  72 NE12G17   29.84R WCI   9
MARSHALL       CLOUDY    32  31  94 NE5       29.72R WCI  27
MOUNT PLEASANT CLOUDY    20  13  72 N8        29.84R WCI  10
MUSKEGON       CLOUDY    29  20  69 NE13      29.79R WCI  19
SOUTH HAVEN    CLOUDY    36  33  92 NE7       29.71S FOG     WCI  30
$$
MIZ016>042-251200-
NORTHERN LOWER MICHIGAN

CITY           SKY/WX    TMP DP  RH WIND       PRES   REMARKS
ALPENA         CLEAR      9   3  77 N8        29.91R WCI  -3
BEAVER ISLAND  CLEAR      7   2  82 CALM      29.95R
BELLAIRE       CLEAR      9   3  76 N7        29.92R WCI  -2
CADILLAC       MOCLDY    11   7  86 N6        29.81R WCI   1
CHARLEVOIX     CLEAR      8   1  70 NE9       29.95R WCI  -5
FRANKFORT      MOCLDY    18  12  77 NE9G16    29.88R WCI   7
GAYLORD        PTCLDY     4   2  91 N6        29.84R WCI  -7
GRAYLING       CLEAR      8   5  86 N6        29.85R WCI  -2
HARBOR SPRINGS PTCLDY     3  -3  76 N3        29.92R
HOUGHTON LAKE  PTCLDY    10   5  80 NE10      29.82R WCI  -4
MANISTEE       CLOUDY    19  10  68 NE7       29.87R WCI  10
OSCODA         PTCLDY    14   8  77 N10       29.87R WCI   1
PELLSTON       PTCLDY     2  -3  80 N10       29.94R WCI -14
ROGERS CITY    PTCLDY    12   6  78 N9        29.93R WCI  -1
TRAVERSE CITY  PTCLDY    14   6  70 NE14      29.89R WCI  -1
$$
MIZ007>008-015-251200-
EASTERN UPPER MICHIGAN

CITY           SKY/WX    TMP DP  RH WIND       PRES   REMARKS
KINROSS        PTCLDY    -4  -6  92 N6        29.94R WCI -16
MACKINAC ISLAN PTCLDY     4  -1  79 N10       29.93R WCI -11
NEWBERRY       CLOUDY     3   1  92 N6        29.94R WCI  -8
S. S. MARIE    MOCLDY    -6 -11  79 W3        29.95R
MUNISING         N/A     17   8  67 NE15      29.95R WCI   2
$$
MIZ004>006-011>014-085-251200-
CENTRAL UPPER MICHIGAN

CITY           SKY/WX    TMP DP  RH WIND       PRES   REMARKS
MANISTIQUE     CLOUDY     8   5  86 NE5       29.94F WCI   0
ESCANABA       CLOUDY    16   9  73 NE12G18   29.93R WCI   3
MENOMINEE      CLOUDY    19   9  63 NE16      29.91R WCI   5
SAWYER-GWINN   FLURRIES  15   8  76 NE9       29.91R WCI   3
$$
MIZ001>003-009>011-084-251200-
WESTERN UPPER MICHIGAN

CITY           SKY/WX    TMP DP  RH WIND       PRES   REMARKS
IRON MOUNTAIN  CLOUDY    16   8  71 NE9       29.90R WCI   4
HOUGHTON       CLOUDY    13   5  70 NE12      29.96R WCI  -1
COPPER HARBOR    N/A     15   7  70 E13G21    30.00R WCI   1
IRONWOOD       CLOUDY    12   9  85 NE6       29.90R WCI   3
$$

ABBREVIATIONS USED IN REMARKS
   TC - TEMPERATURE IN CELSIUS
  WCI - WIND CHILL INDEX
   HX - HEAT INDEX
  VSB - VISIBILITY



USA.gov is the U.S. government's official web portal to all federal, state and local government web resources and services.